KB6LA Weather Reports


time (UTC)temp
F
wind
direction
speed
knots
gust
knots
rain 1hr
in
rain 24hr
in
rain mn
in
humidity
%
barometer
mb
20260510102431 58 20 0.9 3.5 0.00 0.00 0.00 95 1011.8
20260510101923 58 4 1.7 2.6 0.00 0.00 0.00 95 1011.8
20260510101416 58 152 0.9 2.6 0.00 0.00 0.00 95 1011.8
20260510100401 58 118 1.7 2.6 0.00 0.00 0.00 95 1011.8
20260510095853 58 1 0.9 2.6 0.00 0.00 0.00 94 1011.8
20260510094837 58 307 0.0 1.7 0.00 0.00 0.00 94 1011.8
20260510094330 58 318 0.0 1.7 0.00 0.00 0.00 94 1012.1
20260510093822 58 299 0.0 1.7 0.00 0.00 0.00 94 1011.8
20260510093314 58 72 0.9 1.7 0.00 0.00 0.00 94 1011.8
20260510092807 58 343 0.0 2.6 0.00 0.00 0.00 94 1011.8
20260510092300 58 11 0.9 2.6 0.00 0.00 0.00 94 1011.8
20260510091752 58 49 1.7 2.6 0.00 0.00 0.00 94 1011.8
20260510091244 58 254 0.0 3.5 0.00 0.00 0.00 94 1011.8
20260510090737 58 173 0.9 3.5 0.00 0.00 0.00 94 1011.8
20260510090229 58 158 2.6 3.5 0.00 0.00 0.00 94 1011.8
20260510085722 58 194 2.6 3.5 0.00 0.00 0.00 94 1011.8
20260510085214 58 209 0.9 3.5 0.00 0.00 0.00 94 1011.8
20260510084159 58 223 0.9 3.5 0.00 0.00 0.00 94 1011.8
20260510083651 58 207 0.0 2.6 0.00 0.00 0.00 94 1011.8
20260510083143 58 258 0.9 3.5 0.00 0.00 0.00 94 1011.8
20260510082636 58 196 2.6 3.5 0.00 0.00 0.00 94 1011.8
20260510082128 58 257 0.9 1.7 0.00 0.00 0.00 94 1011.8
20260510081621 58 196 1.7 1.7 0.00 0.00 0.00 94 1012.1
20260510081113 58 191 1.7 2.6 0.00 0.00 0.00 94 1011.8
20260510080606 58 212 0.9 2.6 0.00 0.00 0.00 94 1012.1
20260510080058 58 222 1.7 2.6 0.00 0.00 0.00 94 1012.1
20260510075043 58 241 0.9 2.6 0.00 0.00 0.00 94 1012.1
20260510074536 58 233 1.7 2.6 0.00 0.00 0.00 94 1012.4
20260510074027 58 265 1.7 2.6 0.00 0.00 0.00 93 1012.4
20260510072505 58 262 0.0 2.6 0.00 0.00 0.00 94 1012.4
20260510071450 58 246 0.9 3.5 0.00 0.00 0.00 94 1012.1
20260510070434 58 199 1.7 3.5 0.00 0.00 0.00 94 1012.1
20260510065927 58 252 0.9 3.5 0.00 0.00 0.00 94 1012.4
20260510065419 58 90 0.9 3.5 0.00 0.00 0.00 94 1012.4
20260510064911 58 114 3.5 3.5 0.00 0.00 0.00 94 1012.1
20260510064403 58 333 0.0 1.7 0.00 0.00 0.00 94 1012.4
20260510063856 58 91 0.9 1.7 0.00 0.00 0.00 94 1012.1
20260510063348 58 235 0.9 1.7 0.00 0.00 0.00 94 1012.1
20260510062841 58 265 0.9 1.7 0.00 0.00 0.00 94 1012.1
20260510062333 58 260 0.9 2.6 0.00 0.00 0.00 94 1012.1
20260510061826 58 283 0.0 2.6 0.00 0.00 0.00 95 1012.1
20260510060811 58 246 0.0 1.7 0.00 0.00 0.00 95 1012.1
20260510060303 58 248 0.9 1.7 0.00 0.00 0.00 95 1012.1
20260510055755 58 208 0.9 1.7 0.00 0.00 0.00 95 1012.1
20260510055248 58 201 1.7 1.7 0.00 0.00 0.00 95 1012.4
20260510054740 58 238 0.9 1.7 0.00 0.00 0.00 95 1012.4
20260510054233 58 272 0.9 1.7 0.00 0.00 0.00 95 1012.4
20260510053726 58 247 0.0 0.9 0.00 0.00 0.00 95 1012.4
20260510052202 58 264 0.0 0.9 0.00 0.00 0.00 95 1012.4
20260510051655 58 281 0.0 0.9 0.00 0.00 0.00 95 1012.4
20260510051147 58 324 0.0 1.7 0.00 0.00 0.00 95 1012.4
20260510050639 58 262 0.0 2.6 0.00 0.00 0.00 95 1012.4
20260510045624 58 199 1.7 2.6 0.00 0.00 0.00 95 1012.4
20260510045117 58 227 0.9 2.6 0.00 0.00 0.00 94 1012.4
20260510044101 58 219 1.7 2.6 0.00 0.00 0.00 95 1012.1
20260510043553 58 225 0.9 2.6 0.00 0.00 0.00 95 1012.1
20260510043046 58 262 0.9 2.6 0.00 0.00 0.00 94 1012.1
20260510042031 58 352 0.0 3.5 0.00 0.00 0.00 94 1012.1
20260510041524 57 267 0.0 3.5 0.00 0.00 0.00 94 1012.1
20260510035452 58 214 1.7 3.5 0.00 0.00 0.00 94 1012.1
20260510034946 58 201 1.7 5.2 0.00 0.00 0.00 94 1011.8
20260510034438 58 232 2.6 5.2 0.00 0.00 0.00 94 1011.8
20260510033930 58 231 2.6 5.2 0.00 0.00 0.00 94 1011.8
20260510033422 58 221 3.5 5.2 0.00 0.00 0.00 93 1011.8
20260510032915 58 278 2.6 3.5 0.00 0.00 0.00 94 1011.8
20260510032408 58 246 0.0 3.5 0.00 0.00 0.00 93 1011.8
20260510031353 58 254 0.9 6.1 0.00 0.00 0.00 93 1011.4
20260510030845 58 230 4.3 6.1 0.00 0.00 0.00 93 1011.4
20260510030337 58 258 2.6 5.2 0.00 0.00 0.00 93 1011.4
20260510025829 58 238 3.5 5.2 0.00 0.00 0.00 93 1011.4
20260510025322 59 285 3.5 3.5 0.00 0.00 0.00 93 1011.1
20260510024814 58 273 0.0 5.2 0.00 0.00 0.00 93 1011.1
20260510024307 58 279 1.7 6.1 0.00 0.00 0.00 93 1011.1
20260510023800 58 244 3.5 7.0 0.00 0.00 0.00 92 1011.1
20260510023251 59 229 3.5 7.0 0.00 0.00 0.00 92 1011.1
20260510022744 59 267 2.6 6.1 0.00 0.00 0.00 92 1011.1
20260510022236 59 237 2.6 6.1 0.00 0.00 0.00 92 1011.1
20260510021729 59 258 3.5 6.1 0.00 0.00 0.00 92 1011.1
20260510021221 59 236 5.2 7.8 0.00 0.00 0.00 92 1011.1
20260510020713 59 232 3.5 7.8 0.00 0.00 0.00 91 1010.7
20260510020206 59 232 2.6 7.0 0.00 0.00 0.00 91 1010.7
20260510015658 59 262 3.5 7.0 0.00 0.00 0.00 91 1010.7
20260510015151 59 205 6.1 8.7 0.00 0.00 0.00 91 1010.7
20260510014135 59 230 5.2 8.7 0.00 0.00 0.00 91 1010.7
20260510013628 60 247 7.0 8.7 0.00 0.00 0.00 90 1010.7
20260510013120 60 294 3.5 7.8 0.00 0.00 0.00 90 1010.7
20260510012613 60 216 3.5 7.8 0.00 0.00 0.00 89 1010.7
20260510012105 60 272 3.5 7.8 0.00 0.00 0.00 89 1010.7
20260510011558 60 278 5.2 8.7 0.00 0.00 0.00 89 1010.7
20260510011050 60 259 5.2 8.7 0.00 0.00 0.00 89 1010.7
20260510010542 60 247 6.1 8.7 0.00 0.00 0.00 89 1010.7
20260510010035 60 218 7.0 8.7 0.00 0.00 0.00 88 1010.7
20260510005527 61 245 5.2 7.8 0.00 0.00 0.00 88 1010.7
20260510005019 61 258 3.5 8.7 0.00 0.00 0.00 89 1010.7
20260510004512 61 239 3.5 12.2 0.00 0.00 0.00 88 1010.7
20260510004004 61 222 3.5 12.2 0.00 0.00 0.00 88 1010.7
20260510003458 61 256 7.8 11.3 0.00 0.00 0.00 86 1010.7
20260510002950 61 195 7.0 12.2 0.00 0.00 0.00 87 1010.7
20260510002441 62 238 8.7 12.2 0.00 0.00 0.00 86 1010.7
20260510001934 62 240 8.7 9.6 0.00 0.00 0.00 85 1010.7
20260510001426 62 222 2.6 9.6 0.00 0.00 0.00 86 1010.7
20260510000918 62 230 5.2 11.3 0.00 0.00 0.00 85 1010.7
20260510000411 62 221 6.1 11.3 0.00 0.00 0.00 86 1010.7
20260509235903 62 256 7.8 12.2 0.00 0.00 0.00 84 1010.7
20260509235356 63 192 7.0 12.2 0.00 0.00 0.00 83 1010.7
20260509234849 63 268 6.1 12.2 0.00 0.00 0.00 83 1010.7
20260509234340 64 250 6.1 12.2 0.00 0.00 0.00 82 1010.7
20260509232818 65 235 5.2 12.2 0.00 0.00 0.00 80 1010.7
20260509232310 64 216 4.3 12.2 0.00 0.00 0.00 80 1010.7
20260509231803 65 220 8.7 11.3 0.00 0.00 0.00 78 1010.7
20260509231255 66 231 6.1 11.3 0.00 0.00 0.00 78 1010.7
20260509230747 65 248 7.0 11.3 0.00 0.00 0.00 79 1010.7
20260509230240 66 202 9.6 11.3 0.00 0.00 0.00 79 1010.7
20260509225732 65 263 7.0 11.3 0.00 0.00 0.00 78 1010.7
20260509224716 67 212 5.2 9.6 0.00 0.00 0.00 76 1011.1
20260509224209 67 274 4.3 8.7 0.00 0.00 0.00 75 1011.1
20260509223154 66 212 7.0 13.0 0.00 0.00 0.00 78 1011.1
20260509221631 67 239 7.8 13.0 0.00 0.00 0.00 76 1011.1
20260509221123 67 220 8.7 12.2 0.00 0.00 0.00 76 1011.4
20260509220616 67 228 7.8 11.3 0.00 0.00 0.00 76 1011.4
20260509220108 67 259 7.0 11.3 0.00 0.00 0.00 77 1011.4
20260509215053 67 274 2.6 11.3 0.00 0.00 0.00 76 1011.4
20260509214545 67 281 5.2 11.3 0.00 0.00 0.00 75 1011.8
20260509214038 67 235 7.0 13.0 0.00 0.00 0.00 76 1011.8
20260509213530 67 259 4.3 13.9 0.00 0.00 0.00 75 1011.8
20260509212514 67 224 5.2 12.2 0.00 0.00 0.00 76 1011.8
20260509212007 67 242 7.8 12.2 0.00 0.00 0.00 74 1011.8
20260509211459 68 224 4.3 9.6 0.00 0.00 0.00 74 1011.8
20260509210952 67 245 4.3 11.3 0.00 0.00 0.00 74 1011.8
20260509210444 68 261 7.0 11.3 0.00 0.00 0.00 73 1011.8
20260509205937 69 245 9.6 9.6 0.00 0.00 0.00 72 1011.8
20260509205429 68 268 5.2 9.6 0.00 0.00 0.00 74 1012.1
20260509204922 68 255 5.2 9.6 0.00 0.00 0.00 75 1012.1
20260509204413 67 210 7.0 9.6 0.00 0.00 0.00 75 1012.1
20260509203906 68 232 7.0 9.6 0.00 0.00 0.00 73 1012.1
20260509203358 67 216 8.7 9.6 0.00 0.00 0.00 74 1012.1
20260509202851 67 262 7.0 9.6 0.00 0.00 0.00 74 1012.1
20260509202343 67 273 7.8 11.3 0.00 0.00 0.00 75 1012.1
20260509201836 67 238 7.8 11.3 0.00 0.00 0.00 74 1012.1
20260509201328 68 243 3.5 9.6 0.00 0.00 0.00 73 1012.1
20260509200820 67 220 4.3 9.6 0.00 0.00 0.00 74 1012.1
20260509200313 67 230 3.5 11.3 0.00 0.00 0.00 76 1012.1
20260509195805 67 246 4.3 11.3 0.00 0.00 0.00 75 1012.4
20260509195259 68 211 6.1 9.6 0.00 0.00 0.00 73 1012.4
20260509194243 67 256 3.5 8.7 0.00 0.00 0.00 75 1012.4
20260509193735 67 266 6.1 8.7 0.00 0.00 0.00 75 1012.4
20260509193227 68 261 4.3 11.3 0.00 0.00 0.00 74 1012.4
20260509192720 67 273 5.2 11.3 0.00 0.00 0.00 75 1012.4
20260509192212 67 256 4.3 8.7 0.00 0.00 0.00 75 1012.4
20260509191705 66 243 7.0 8.7 0.00 0.00 0.00 77 1012.4
20260509191157 67 252 6.1 9.6 0.00 0.00 0.00 76 1012.4
20260509190649 67 217 5.2 9.6 0.00 0.00 0.00 76 1012.8
20260509190142 67 226 3.5 9.6 0.00 0.00 0.00 75 1012.8
20260509185634 66 213 3.5 8.7 0.00 0.00 0.00 77 1012.8
20260509185127 67 261 4.3 8.7 0.00 0.00 0.00 76 1012.8
20260509184619 66 247 7.8 9.6 0.00 0.00 0.00 77 1012.8
20260509184111 66 328 1.7 11.3 0.00 0.00 0.00 77 1012.8
20260509183603 66 210 7.8 11.3 0.00 0.00 0.00 78 1012.8
20260509183057 66 220 7.0 11.3 0.00 0.00 0.00 78 1012.8
20260509181533 67 187 3.5 9.6 0.00 0.00 0.00 77 1012.8
20260509181026 67 188 3.5 8.7 0.00 0.00 0.00 77 1013.1
20260509180518 66 222 5.2 8.7 0.00 0.00 0.00 76 1013.1
20260509180011 67 198 5.2 9.6 0.00 0.00 0.00 77 1013.1
20260509174955 68 256 3.5 8.7 0.00 0.00 0.00 75 1013.1
20260509174448 67 260 2.6 6.1 0.00 0.00 0.00 75 1013.1
20260509173939 67 266 2.6 6.1 0.00 0.00 0.00 77 1012.8
20260509173433 66 249 1.7 7.0 0.00 0.00 0.00 77 1013.1
20260509172925 66 246 4.3 7.0 0.00 0.00 0.00 77 1012.8
20260509172417 66 6 0.9 7.8 0.00 0.00 0.00 79 1012.8
20260509171910 65 244 3.5 7.8 0.00 0.00 0.00 80 1013.1
20260509171402 65 249 2.6 8.7 0.00 0.00 0.00 80 1012.8
20260509170855 65 242 6.1 8.7 0.00 0.00 0.00 78 1012.8
20260509170346 65 241 0.9 3.5 0.00 0.00 0.00 78 1012.8
20260509165839 65 196 2.6 5.2 0.00 0.00 0.00 79 1012.8
20260509165331 65 256 2.6 5.2 0.00 0.00 0.00 78 1012.8
20260509164824 65 167 4.3 5.2 0.00 0.00 0.00 78 1012.4
20260509164316 65 259 0.9 2.6 0.00 0.00 0.00 79 1012.4
20260509163809 65 253 0.9 2.6 0.00 0.00 0.00 79 1012.8
20260509162754 64 125 0.9 2.6 0.00 0.00 0.00 80 1012.4
20260509162246 64 304 0.0 2.6 0.00 0.00 0.00 82 1012.8
20260509161738 64 207 0.9 2.6 0.00 0.00 0.00 83 1012.8
20260509161231 63 256 1.7 2.6 0.00 0.00 0.00 84 1012.8
20260509160723 63 229 1.7 2.6 0.00 0.00 0.00 85 1012.8
20260509160216 63 281 0.0 2.6 0.00 0.00 0.00 86 1012.8
20260509155707 62 238 0.9 2.6 0.00 0.00 0.00 86 1012.8
20260509155200 62 285 0.9 2.6 0.00 0.00 0.00 86 1012.8
20260509154653 62 253 0.9 2.6 0.00 0.00 0.00 86 1012.8
20260509154146 62 251 0.9 1.7 0.00 0.00 0.00 86 1012.8
20260509152622 62 263 0.0 3.5 0.00 0.00 0.00 88 1013.1
20260509151101 61 289 0.9 2.6 0.00 0.00 0.00 89 1012.8
20260509150552 61 272 0.9 3.5 0.00 0.00 0.00 89 1012.8
20260509150044 61 267 0.9 3.5 0.00 0.00 0.00 89 1012.8
20260509145537 61 229 2.6 3.5 0.00 0.00 0.00 89 1012.8
20260509145029 61 249 1.7 3.5 0.00 0.00 0.00 90 1012.8
20260509144522 60 230 1.7 3.5 0.00 0.00 0.00 90 1013.1
20260509144013 60 250 0.9 2.6 0.00 0.00 0.00 90 1012.8
20260509143506 60 223 1.7 2.6 0.00 0.00 0.00 90 1012.8
20260509142959 60 234 1.7 1.7 0.00 0.00 0.00 90 1012.8
20260509141943 60 261 0.9 2.6 0.00 0.00 0.00 90 1012.4
20260509140420 60 256 0.0 2.6 0.00 0.00 0.00 90 1012.8
20260509135913 60 253 0.9 2.6 0.00 0.00 0.00 90 1012.8
20260509135405 60 273 0.0 3.5 0.00 0.00 0.00 89 1012.4
20260509134858 60 254 1.7 3.5 0.00 0.00 0.00 89 1012.4
20260509134350 60 234 1.7 2.6 0.00 0.00 0.00 89 1012.4
20260509133843 61 243 2.6 2.6 0.00 0.00 0.00 88 1012.4
20260509133335 61 224 0.9 2.6 0.00 0.00 0.00 88 1012.4
20260509132828 61 195 0.9 2.6 0.00 0.00 0.00 87 1012.4
20260509132320 61 252 0.0 2.6 0.00 0.00 0.00 88 1012.4
20260509131812 61 235 0.9 2.6 0.00 0.00 0.00 88 1012.4
20260509130757 61 341 0.0 0.9 0.00 0.00 0.00 88 1012.4
20260509130249 61 345 0.0 0.9 0.00 0.00 0.00 88 1012.4
20260509125742 61 339 0.0 0.9 0.00 0.00 0.00 88 1012.1
20260509125234 60 342 0.9 0.9 0.00 0.00 0.00 89 1012.1
20260509124726 60 345 0.9 6.1 0.00 0.00 0.00 88 1012.1
20260509124219 60 2 0.9 6.1 0.00 0.00 0.00 89 1012.1
20260509123712 60 12 1.7 3.5 0.00 0.00 0.00 89 1012.4
20260509122656 60 351 0.0 3.5 0.00 0.00 0.00 89 1012.1
20260509122149 60 129 2.6 3.5 0.00 0.00 0.00 89 1012.1
20260509121641 60 5 0.0 3.5 0.00 0.00 0.00 89 1012.1
20260509120626 60 86 1.7 2.6 0.00 0.00 0.00 89 1012.1
20260509115610 60 261 0.0 3.5 0.00 0.00 0.00 89 1012.1
20260509115102 60 51 1.7 2.6 0.00 0.00 0.00 89 1012.1
20260509114555 60 150 1.7 1.7 0.00 0.00 0.00 89 1012.1
20260509114047 60 18 0.9 1.7 0.00 0.00 0.00 89 1012.1
20260509113540 60 46 1.7 1.7 0.00 0.00 0.00 89 1012.1
20260509113033 60 4 0.9 1.7 0.00 0.00 0.00 89 1012.1
20260509112525 60 355 0.0 1.7 0.00 0.00 0.00 89 1012.1
20260509112018 60 183 0.9 1.7 0.00 0.00 0.00 90 1012.1
20260509111002 60 355 0.9 1.7 0.00 0.00 0.00 90 1012.1
20260509110454 60 1 0.0 2.6 0.00 0.00 0.00 90 1012.1
20260509105947 60 6 0.0 2.6 0.00 0.00 0.00 90 1012.1
20260509105439 60 34 0.0 3.5 0.00 0.00 0.00 90 1012.4
20260509104932 60 103 2.6 3.5 0.00 0.00 0.00 90 1012.1
20260509104424 60 114 2.6 3.5 0.00 0.00 0.00 90 1012.4
20260509103917 60 248 0.9 3.5 0.00 0.00 0.00 90 1012.4
20260509102902 60 225 0.9 3.5 0.00 0.00 0.00 90 1012.4